TimePDT,TemperatureF,Dew PointF,Humidity,Sea Level PressureIn,VisibilityMPH,Wind Direction,Wind SpeedMPH,Gust SpeedMPH,PrecipitationIn,Events,Conditions,WindDirDegrees,DateUTC
12:53 AM,52.0,46.0,80,30.10,10.0,SW,8.1,-,N/A,,Overcast,220,2013-04-26 07:53:00
1:53 AM,51.1,45.0,80,30.09,10.0,SW,6.9,-,N/A,,Overcast,220,2013-04-26 08:53:00
2:53 AM,51.1,45.0,80,30.10,10.0,SW,8.1,-,N/A,,Overcast,220,2013-04-26 09:53:00
3:37 AM,50.0,44.6,82,30.14,10.0,SW,5.8,-,N/A,,Scattered Clouds,230,2013-04-26 10:37:00
3:53 AM,50.0,45.0,83,30.10,10.0,WSW,5.8,-,N/A,,Clear,240,2013-04-26 10:53:00
4:53 AM,48.9,45.0,86,30.11,10.0,WSW,6.9,-,N/A,,Clear,240,2013-04-26 11:53:00
5:26 AM,50.0,44.6,82,30.15,10.0,WSW,4.6,-,N/A,,Mostly Cloudy,240,2013-04-26 12:26:00
5:53 AM,50.0,45.0,83,30.12,10.0,SW,4.6,-,N/A,,Overcast,220,2013-04-26 12:53:00
6:53 AM,50.0,45.0,83,30.14,10.0,WSW,4.6,-,N/A,,Scattered Clouds,250,2013-04-26 13:53:00
7:35 AM,51.8,46.4,82,30.20,10.0,WSW,5.8,-,N/A,,Mostly Cloudy,250,2013-04-26 14:35:00
7:53 AM,52.0,46.0,80,30.17,10.0,WSW,5.8,-,N/A,,Mostly Cloudy,250,2013-04-26 14:53:00
8:53 AM,54.0,46.9,77,30.18,10.0,West,4.6,-,N/A,,Overcast,260,2013-04-26 15:53:00
9:29 AM,55.4,46.4,72,30.22,10.0,Variable,5.8,-,N/A,,Scattered Clouds,0,2013-04-26 16:29:00
9:53 AM,57.0,46.9,69,30.18,10.0,SW,3.5,-,N/A,,Partly Cloudy,220,2013-04-26 16:53:00
10:53 AM,61.0,48.0,62,30.18,10.0,Variable,4.6,-,N/A,,Clear,0,2013-04-26 17:53:00
11:53 AM,64.0,48.9,58,30.17,10.0,NNW,11.5,-,N/A,,Clear,330,2013-04-26 18:53:00
12:53 PM,68.0,50.0,52,30.15,10.0,NNW,11.5,-,N/A,,Clear,340,2013-04-26 19:53:00
1:53 PM,71.1,48.9,45,30.14,10.0,NW,13.8,-,N/A,,Clear,310,2013-04-26 20:53:00
2:53 PM,73.9,50.0,43,30.12,10.0,NW,11.5,-,N/A,,Clear,310,2013-04-26 21:53:00
3:53 PM,73.9,50.0,43,30.11,10.0,NW,13.8,-,N/A,,Clear,310,2013-04-26 22:53:00
4:53 PM,73.0,51.1,46,30.10,10.0,WNW,11.5,-,N/A,,Clear,300,2013-04-26 23:53:00
5:53 PM,70.0,51.1,51,30.10,10.0,West,8.1,-,N/A,,Clear,260,2013-04-27 00:53:00
6:53 PM,68.0,50.0,52,30.11,10.0,WSW,10.4,-,N/A,,Clear,250,2013-04-27 01:53:00
7:53 PM,62.1,46.9,58,30.12,10.0,WNW,12.7,-,N/A,,Clear,290,2013-04-27 02:53:00
8:53 PM,57.0,46.0,67,30.14,10.0,WNW,5.8,-,N/A,,Clear,290,2013-04-27 03:53:00
9:53 PM,54.0,46.0,75,30.16,10.0,SW,8.1,-,N/A,,Clear,220,2013-04-27 04:53:00
10:53 PM,53.1,45.0,74,30.16,10.0,SSW,8.1,-,N/A,,Clear,200,2013-04-27 05:53:00
11:53 PM,52.0,45.0,77,30.17,10.0,SSW,8.1,-,N/A,,Clear,210,2013-04-27 06:53:00